Waarnemingen

Advertentie
Mijn weer
Orense, Spanje (8048): temperatuur & dauwpunt: 08.08.2018 17:00:00 - 14.08.2018 17:00:00 (CEST)Orense, Spanje (8048): windsnelheid: 08.08.2018 17:00:00 - 14.08.2018 17:00:00 (CEST)Orense, Spanje (8048): windrichting: 08.08.2018 17:00:00 - 14.08.2018 17:00:00 (CEST)Orense, Spanje (8048): luchtdruk: 08.08.2018 17:00:00 - 14.08.2018 17:00:00 (CEST)Orense, Spanje (8048): zicht: 08.08.2018 17:00:00 - 14.08.2018 17:00:00 (CEST)Orense, Spanje (8048): neerslag: 08.08.2018 17:00:00 - 14.08.2018 17:00:00 (CEST)
Datum & Tijd tt [°C] td [°C] ff [km/u] ff [kn] dd ppp [hPa] vv [km] rr [mm]
14.08.2018 17:00:00 - - - - - - - -
14.08.2018 16:00:00 31,7 13,5 5 3 NNW 1016,5 20 0,0
14.08.2018 15:00:00 29,8 12,7 5 3 NNO 1017,4 20 0,0
14.08.2018 14:00:00 26,9 13,6 8 4 WNW 1018,4 20 -
14.08.2018 13:00:00 24,1 13,6 5 3 W 1019,4 10 0,0
14.08.2018 12:00:00 21,3 13,7 4 2 W 1020,1 20 0,0
14.08.2018 11:00:00 19,0 13,6 4 2 ZZO 1020,6 20 -
14.08.2018 10:00:00 17,5 12,8 4 2 NNW 1020,7 20 0,0
14.08.2018 09:00:00 16,1 12,6 4 2 WNW 1020,4 20 0,0
14.08.2018 08:00:00 15,0 12,3 4 2 Z 1020,3 20 -
14.08.2018 07:00:00 15,1 12,2 2 1 ZW 1019,8 20 0,0
14.08.2018 06:00:00 16,6 12,7 4 2 N 1019,5 20 0,0
14.08.2018 05:00:00 17,2 12,9 4 2 N 1019,4 20 -
14.08.2018 04:00:00 17,4 12,9 2 1 WZW 1019,0 20 0,0
14.08.2018 03:00:00 18,4 13,3 4 2 WNW 1018,9 20 0,0
14.08.2018 02:00:00 18,8 13,6 4 2 NNW 1019,1 20 -
14.08.2018 01:00:00 19,4 13,6 4 2 N 1018,8 20 0,0
14.08.2018 00:00:00 20,4 13,6 4 2 N 1018,4 20 0,0
13.08.2018 23:00:00 21,5 13,7 4 2 NW 1018,0 20 -
13.08.2018 22:00:00 23,1 13,8 4 2 ONO 1017,1 20 0,0
13.08.2018 21:00:00 25,0 13,5 4 2 N 1016,6 20 0,0
13.08.2018 20:00:00 25,8 13,6 5 3 N 1016,2 20 -
13.08.2018 19:00:00 25,6 13,1 4 2 N 1016,3 19 0,0
13.08.2018 18:00:00 26,6 13,7 5 3 NNO 1016,2 20 0,0
13.08.2018 17:00:00 28,1 14,0 5 3 N 1016,2 20 -
13.08.2018 16:00:00 26,5 13,6 5 3 W 1016,9 20 0,0
13.08.2018 15:00:00 25,2 13,4 8 4 NW 1017,2 19 0,0
13.08.2018 14:00:00 24,7 12,9 8 4 W 1017,6 20 -
13.08.2018 13:00:00 23,4 12,4 4 2 NNO 1018,0 20 0,0
13.08.2018 12:00:00 20,8 12,5 2 1 W 1018,4 20 0,0
13.08.2018 11:00:00 20,1 12,3 5 3 W 1018,4 20 -
13.08.2018 10:00:00 18,4 12,4 4 2 W 1018,4 20 0,0
13.08.2018 09:00:00 17,5 12,4 4 2 WZW 1018,0 20 0,0
13.08.2018 08:00:00 17,4 11,9 2 1 NO 1017,5 20 -
13.08.2018 07:00:00 17,4 12,1 2 1 Z 1017,1 20 0,0
13.08.2018 06:00:00 17,5 12,0 4 2 WZW 1017,1 20 0,0
13.08.2018 05:00:00 17,9 12,1 4 2 W 1016,8 20 -
13.08.2018 04:00:00 18,7 12,4 5 3 NNW 1016,5 20 0,0
13.08.2018 03:00:00 19,7 13,6 2 1 WNW 1016,7 20 0,0
13.08.2018 02:00:00 20,1 14,7 4 2 W 1016,7 20 -
13.08.2018 01:00:00 20,6 15,2 5 3 W 1016,6 20 0,0
13.08.2018 00:00:00 20,8 15,8 4 2 O 1016,5 20 0,0
12.08.2018 23:00:00 21,5 16,2 5 3 W 1016,3 20 -
12.08.2018 22:00:00 22,9 16,9 9 5 W 1015,5 20 0,0
12.08.2018 21:00:00 24,4 16,1 8 4 WZW 1014,9 20 0,0
12.08.2018 20:00:00 25,3 16,2 9 5 W 1014,8 20 -
12.08.2018 19:00:00 27,1 16,4 11 6 W 1015,0 20 0,0
12.08.2018 18:00:00 28,4 15,7 13 7 W 1014,9 20 0,0
12.08.2018 17:00:00 28,9 15,8 9 5 W 1014,9 20 -
12.08.2018 16:00:00 29,1 15,2 8 4 W 1015,2 20 0,0
12.08.2018 15:00:00 27,5 15,2 9 5 WZW 1015,8 20 0,0
12.08.2018 14:00:00 25,9 14,7 5 3 ZZO 1016,3 19 -
12.08.2018 13:00:00 24,2 14,0 2 1 WZW 1016,9 20 0,0
12.08.2018 12:00:00 22,5 13,3 4 2 N 1017,1 20 0,0
12.08.2018 11:00:00 20,1 13,3 4 2 W 1016,9 20 -
12.08.2018 10:00:00 17,5 13,0 4 2 WZW 1017,4 20 0,0
12.08.2018 09:00:00 14,4 12,3 2 1 WZW 1017,8 20 0,0
12.08.2018 08:00:00 14,0 11,5 2 1 ZW 1017,7 20 -
12.08.2018 07:00:00 14,6 11,7 4 2 WZW 1017,5 20 0,0
12.08.2018 06:00:00 15,3 12,1 2 1 Z 1017,3 20 0,0
12.08.2018 05:00:00 16,2 12,6 2 1 ZZW 1017,5 20 -
12.08.2018 04:00:00 17,1 12,8 4 2 ZZW 1017,7 20 0,0
12.08.2018 03:00:00 18,2 12,9 2 1 W 1017,9 20 0,0
12.08.2018 02:00:00 19,5 13,4 2 1 W 1018,3 20 -
12.08.2018 01:00:00 21,4 13,8 2 1 NO 1018,3 20 0,0
12.08.2018 00:00:00 23,3 14,3 4 2 W 1018,1 20 0,0
11.08.2018 23:00:00 26,1 14,2 2 1 ZW 1017,7 20 -
11.08.2018 22:00:00 28,2 14,1 4 2 W 1016,8 20 0,0
11.08.2018 21:00:00 31,6 13,4 5 3 W 1016,1 20 0,0
11.08.2018 20:00:00 33,7 8,3 9 5 W 1016,0 20 -
11.08.2018 19:00:00 34,5 8,3 9 5 WZW 1016,1 20 0,0
11.08.2018 18:00:00 34,9 8,6 8 4 W 1016,3 20 0,0
11.08.2018 17:00:00 34,1 11,3 9 5 W 1016,9 20 -
11.08.2018 16:00:00 33,4 10,1 5 3 N 1017,4 20 0,0
11.08.2018 15:00:00 31,4 9,0 4 2 NO 1018,4 20 0,0
11.08.2018 14:00:00 28,9 13,2 5 3 ZZW 1019,3 20 -
11.08.2018 13:00:00 25,7 13,5 4 2 ZZW 1020,3 20 0,0
11.08.2018 12:00:00 22,0 13,9 5 3 ZZW 1021,2 20 0,0
11.08.2018 11:00:00 18,8 13,2 5 3 ZZW 1021,9 19 -
11.08.2018 10:00:00 15,7 12,3 4 2 ZZO 1022,6 20 0,0
11.08.2018 09:00:00 12,8 10,9 2 1 ZZO 1022,9 20 0,0
11.08.2018 08:00:00 12,3 10,2 4 2 ZZO 1022,7 20 -
11.08.2018 07:00:00 12,9 10,8 2 1 Z 1022,5 20 0,0
11.08.2018 06:00:00 13,7 10,9 4 2 Z 1022,4 20 0,0
11.08.2018 05:00:00 15,0 11,4 2 1 Z 1022,6 20 -
11.08.2018 04:00:00 16,1 12,3 5 3 ZO 1022,6 20 0,0
11.08.2018 03:00:00 17,7 12,6 4 2 OZO 1022,9 20 0,0
11.08.2018 02:00:00 19,4 13,1 4 2 NNW 1023,0 20 -
11.08.2018 01:00:00 20,7 13,4 2 1 N 1022,7 20 0,0
11.08.2018 00:00:00 22,0 13,4 4 2 N 1022,3 20 0,0
10.08.2018 23:00:00 23,6 12,9 4 2 NNW 1021,9 20 -
10.08.2018 22:00:00 25,4 12,3 4 2 N 1020,9 20 0,0
10.08.2018 21:00:00 28,3 10,9 5 3 NO 1019,8 20 0,0
10.08.2018 20:00:00 30,0 10,5 5 3 NNO 1019,4 19 -
10.08.2018 19:00:00 31,9 6,9 5 3 WZW 1019,3 20 0,0
10.08.2018 18:00:00 31,3 7,0 8 4 W 1019,5 20 0,0
10.08.2018 17:00:00 30,3 9,2 9 5 W 1019,9 20 -
10.08.2018 16:00:00 29,4 8,4 4 2 NW 1020,5 20 0,0
10.08.2018 15:00:00 27,7 11,3 5 3 NNW 1021,3 20 0,0
10.08.2018 14:00:00 25,5 11,3 4 2 N 1021,9 20 -
10.08.2018 13:00:00 22,8 9,9 5 3 NNW 1023,0 20 0,0
10.08.2018 12:00:00 19,7 10,4 4 2 NO 1023,6 20 0,0
10.08.2018 11:00:00 16,6 10,0 4 2 ONO 1024,3 20 -
10.08.2018 10:00:00 13,4 9,3 2 1 W 1024,8 20 0,0
10.08.2018 09:00:00 10,4 8,2 2 1 ZZO 1025,1 20 0,0
10.08.2018 08:00:00 10,0 7,6 4 2 Z 1024,7 20 -
10.08.2018 07:00:00 - - - - - - - -
10.08.2018 06:00:00 - - - - - - - -
10.08.2018 05:00:00 - - - - - - - -
10.08.2018 04:00:00 - - - - - - - -
10.08.2018 03:00:00 - - - - - - - -
10.08.2018 02:00:00 - - - - - - - -
10.08.2018 01:00:00 - - - - - - - -
10.08.2018 00:00:00 - - - - - - - -
09.08.2018 23:00:00 - - - - - - - -
09.08.2018 22:00:00 - - - - - - - -
09.08.2018 21:00:00 - - - - - - - -
09.08.2018 20:00:00 - - - - - - - -
09.08.2018 19:00:00 25,8 7,8 5 3 N 1020,2 18 0,0
09.08.2018 18:00:00 26,2 7,7 5 3 NNW 1020,2 20 0,0
09.08.2018 17:00:00 26,1 8,1 5 3 N 1020,6 20 -
09.08.2018 16:00:00 25,2 7,3 5 3 ONO 1021,1 18 0,0
09.08.2018 15:00:00 24,4 8,4 8 4 N 1021,1 20 0,0
09.08.2018 14:00:00 24,1 9,7 5 3 NO 1021,3 20 -
09.08.2018 13:00:00 22,9 10,3 5 3 NO 1021,5 20 0,0
09.08.2018 12:00:00 20,7 11,1 4 2 NO 1021,7 20 0,0
09.08.2018 11:00:00 18,3 11,8 5 3 N 1021,3 20 -
09.08.2018 10:00:00 17,1 12,0 8 4 NO 1021,1 19 0,0
09.08.2018 09:00:00 15,2 13,6 2 1 Z 1020,7 20 0,0
09.08.2018 08:00:00 15,2 13,2 2 1 ZW 1020,1 20 -
09.08.2018 07:00:00 14,8 13,5 4 2 ZO 1019,4 20 0,0
09.08.2018 06:00:00 14,9 13,4 4 2 ZO 1018,8 20 0,0
09.08.2018 05:00:00 15,4 13,6 2 1 ZW 1018,5 8 -
09.08.2018 04:00:00 15,4 13,2 4 2 ZZW 1017,7 20 0,0
09.08.2018 03:00:00 15,8 13,6 2 1 ZZO 1017,6 19 0,0
09.08.2018 02:00:00 15,6 13,6 4 2 ZZW 1017,2 20 -
09.08.2018 01:00:00 15,6 13,6 4 2 WZW 1017,1 20 0,0
09.08.2018 00:00:00 16,1 13,9 2 1 ZW 1016,7 20 0,0
08.08.2018 23:00:00 16,8 13,5 2 1 O 1016,2 19 -
08.08.2018 22:00:00 18,8 12,3 2 1 NNW 1015,4 10 0,2
08.08.2018 21:00:00 20,9 12,3 5 3 W 1014,8 20 0,0
08.08.2018 20:00:00 22,8 13,6 13 7 W 1013,6 20 -
08.08.2018 19:00:00 26,1 13,9 13 7 W 1012,2 20 0,0
08.08.2018 18:00:00 27,0 14,4 11 6 W 1011,8 20 0,0
08.08.2018 17:00:00 28,6 14,1 9 5 WZW 1011,7 20 -

tt = temperatuur
td = dauwpunt
ff = windsnelheid
dd = windrichting
ppp = luchtdruk
vv = zicht
rr = neerslag

Weerstations in de omgeving